GFSGBSN_sfc_temp_273.txt.gz
Temp
68 67 67 66 66 66 66 65 65 65 65 66 66 65 65 65 65 65 66 66 66 67 67 66 67 67 66 62 63 77 78 78 75 74 71 70 63 58 52 52 51 47 48 51 50 50 48
68 67 66 66 66 66 66 65 65 65 65 65 65 65 65 65 64 65 65 65 66 66 66 66 67 67 65 57 72 75 77 76 75 71 67 67 64 60 54 50 49 48 49 48 49 49 49
68 67 67 66 66 66 66 65 64 64 64 64 65 65 65 64 63 64 64 65 66 65 65 66 67 72 65 62 72 71 77 71 72 71 67 66 66 61 55 49 52 50 44 45 44 47 45
67 67 67 66 66 66 65 65 64 64 64 65 65 64 64 63 63 64 64 64 64 65 65 67 67 66 59 73 71 74 74 71 74 72 68 66 66 59 54 53 51 45 42 37 44 47 46
67 67 67 66 66 65 65 64 64 63 63 64 64 64 63 63 62 63 64 64 65 67 67 68 66 62 57 75 68 69 69 68 69 69 69 74 64 54 52 45 41 41 36 37 40 47 45
67 67 66 66 65 65 65 65 64 63 63 63 63 62 62 62 62 63 63 64 67 68 71 75 74 62 64 63 67 69 68 70 67 66 64 62 53 47 44 42 38 37 35 37 38 43 42
65 65 65 65 65 65 65 64 64 63 63 62 62 62 61 62 62 62 62 67 67 65 65 61 61 61 64 67 70 66 67 66 65 62 51 53 49 42 43 44 44 42 40 39 40 45 41
65 65 64 64 65 65 64 64 63 63 63 62 62 62 61 61 61 60 59 64 63 67 58 65 65 64 67 66 61 63 67 59 57 51 51 50 43 47 51 49 46 44 40 37 40 44 41
64 64 64 64 64 65 64 64 63 63 62 62 62 61 61 61 60 62 64 64 69 67 57 61 65 64 64 67 58 58 62 58 53 49 46 45 47 54 51 45 45 40 38 37 38 40 40
63 63 63 63 63 64 64 63 62 62 62 61 61 60 61 60 63 63 65 68 67 67 49 54 59 62 65 64 57 64 62 59 54 49 48 45 50 50 47 45 43 38 43 43 41 36 32
62 62 62 62 62 64 63 62 62 62 61 61 61 60 60 60 58 63 67 67 65 67 38 58 58 67 62 60 57 59 63 59 51 50 48 42 45 45 45 44 45 41 44 42 41 34 30
61 62 62 61 61 61 63 62 62 62 61 61 60 60 59 60 58 63 66 65 67 50 40 53 58 56 56 56 56 59 58 61 56 51 48 44 49 46 44 47 46 47 42 39 35 32 29
60 60 60 61 60 60 61 62 62 62 62 61 60 59 57 63 61 63 63 63 49 41 57 52 53 56 53 51 51 53 50 46 46 41 38 43 43 46 48 42 44 42 35 31 33 30 31
59 59 60 60 60 60 60 61 61 62 61 60 58 58 59 62 60 62 61 54 39 52 52 56 55 54 51 53 49 50 46 45 45 44 39 39 39 42 45 40 37 36 35 32 32 29 29
59 59 59 59 59 59 59 60 60 61 61 58 57 54 56 60 61 61 56 42 47 51 57 55 54 48 48 51 50 46 45 44 46 47 43 39 39 43 45 43 41 36 33 35 30 25 26
58 58 59 59 58 58 58 59 60 60 60 57 51 51 55 61 61 58 50 45 50 57 59 56 50 50 45 48 47 44 44 46 46 46 43 42 37 41 43 44 42 37 41 34 31 26 27
58 58 58 58 58 58 57 58 58 58 59 57 51 51 59 59 60 52 43 45 53 60 60 57 52 50 49 48 48 44 45 45 48 45 44 42 41 35 40 38 37 37 34 33 32 29 23
58 58 58 58 57 56 56 57 57 57 56 54 48 47 58 58 48 40 43 50 57 57 57 57 56 54 51 49 47 44 47 45 46 48 43 42 39 35 37 38 41 37 35 35 27 27 21
58 57 57 57 56 55 56 56 56 56 55 49 46 46 56 57 41 40 45 52 55 53 55 55 55 55 53 49 46 47 45 45 46 45 43 44 38 34 32 34 37 35 37 34 30 26 23
58 57 57 56 55 55 55 55 56 56 55 50 45 43 48 48 44 44 45 48 50 53 55 56 54 55 51 47 48 45 44 44 45 45 53 48 37 39 36 38 37 33 36 34 33 21 23
57 57 56 56 55 55 55 55 55 55 55 51 47 42 43 39 44 44 46 46 48 49 52 55 50 54 52 45 44 45 42 41 43 49 42 42 38 35 38 40 39 39 37 33 30 33 33
57 57 56 56 55 55 55 55 55 55 55 53 48 42 42 40 44 44 43 44 48 49 51 49 50 54 51 49 51 49 44 42 44 38 39 38 37 34 37 38 38 37 38 36 36 33 32
57 57 56 56 56 55 54 54 54 54 53 50 52 47 46 42 41 41 42 47 50 51 51 52 53 51 48 51 51 45 45 45 46 41 38 37 36 32 33 34 36 36 36 37 34 35 39
57 56 56 56 56 55 54 54 54 54 52 50 50 50 45 37 40 43 47 48 48 48 48 49 49 51 48 49 50 49 46 43 43 39 41 35 33 28 26 32 30 41 38 41 41 39 39
57 56 56 56 56 55 55 54 54 54 53 47 49 47 47 37 41 44 46 45 45 44 45 46 46 46 49 49 39 39 38 39 38 38 38 38 32 23 28 28 39 38 37 38 39 45 45
57 56 56 55 55 54 54 53 54 53 53 47 49 52 49 44 41 46 46 48 44 39 41 43 45 45 46 41 35 34 34 37 34 33 37 36 34 29 21 26 33 42 40 43 42 39 45
57 57 56 55 55 54 54 54 53 53 53 45 47 51 49 43 46 45 44 44 50 43 39 39 42 43 43 32 31 30 36 40 35 33 31 28 23 25 24 23 35 42 43 43 36 43 42
57 57 56 55 55 54 54 53 53 53 53 46 47 50 48 44 45 47 49 45 45 43 41 42 41 40 33 32 33 36 35 39 36 36 33 33 26 23 23 24 33 42 42 42 47 40 43
57 56 56 55 55 54 54 53 53 53 52 49 46 50 50 45 45 46 47 49 49 47 45 43 41 40 42 35 33 36 35 33 36 35 32 34 38 32 35 39 45 43 44 45 43 45 42

GFSGBSN_sfc_temp_276.txt.gz
Temp
68 67 67 66 66 66 66 65 65 65 65 65 65 65 65 65 65 65 65 65 66 67 67 66 66 67 65 60 61 75 78 76 72 71 69 67 61 56 51 49 49 46 46 49 49 49 46
68 67 66 66 66 66 66 65 65 64 64 65 65 65 65 64 64 64 65 65 66 66 66 66 67 67 64 55 70 73 74 73 72 69 65 65 61 58 52 48 47 45 47 46 48 47 47
67 67 67 66 66 66 65 65 64 64 64 64 65 65 64 64 63 63 64 65 65 65 65 66 67 72 64 61 70 69 75 69 69 69 64 64 64 60 53 47 50 48 44 43 43 45 43
67 67 67 66 66 65 65 65 64 63 64 64 65 64 64 63 63 63 64 64 64 64 65 66 67 65 58 70 69 72 71 69 72 70 65 64 64 56 52 51 49 44 41 36 42 45 44
67 67 67 66 66 65 65 64 64 63 63 64 64 63 63 63 62 63 63 63 65 67 67 67 64 62 56 73 67 67 68 67 68 67 66 71 61 52 50 44 40 40 35 35 39 45 44
67 66 66 66 65 65 65 65 64 63 63 63 63 62 62 62 62 62 62 63 67 67 70 73 73 61 63 61 65 67 66 68 66 64 62 60 52 46 43 42 37 35 33 36 37 42 40
65 65 65 65 65 65 65 65 64 63 63 62 62 62 61 61 62 62 61 66 65 63 64 60 59 59 62 64 67 65 64 64 63 60 49 51 48 41 42 43 42 41 38 37 38 42 39
64 64 64 64 64 64 64 64 63 63 63 62 62 62 61 61 61 60 58 63 62 65 57 63 63 62 65 64 59 61 65 57 55 49 49 49 41 46 50 47 44 41 37 36 39 42 39
63 64 64 64 64 64 64 64 63 63 62 62 62 61 61 61 60 61 61 61 66 66 56 61 63 62 62 65 56 56 61 56 52 47 45 44 45 52 49 43 43 39 36 35 36 38 37
63 63 63 62 63 63 64 63 63 62 62 61 61 61 60 60 62 59 62 65 65 65 49 54 57 61 63 62 55 62 60 58 53 47 46 44 48 48 45 43 42 36 42 41 40 35 31
62 63 62 61 62 62 63 62 62 62 61 61 61 60 60 59 56 60 63 63 62 65 37 56 58 66 61 58 57 58 61 58 50 47 46 41 43 43 43 43 43 40 43 40 39 32 29
61 61 61 60 61 61 61 62 63 62 61 61 60 60 59 59 56 61 62 61 64 49 40 51 57 55 54 55 54 57 56 59 54 49 46 42 47 45 42 46 45 45 40 38 33 31 29
60 60 60 60 60 60 60 61 61 63 62 61 60 59 57 61 59 60 61 60 47 39 55 51 51 55 52 50 50 51 49 45 46 39 36 41 41 44 46 42 42 41 34 31 33 30 31
59 59 59 60 60 59 60 60 60 61 62 60 58 58 58 60 58 59 60 53 36 49 48 55 53 52 51 52 48 48 46 44 43 43 38 38 38 40 44 39 38 35 35 32 32 29 29
59 59 59 60 60 59 58 59 60 60 60 59 57 54 54 58 59 59 55 41 44 48 54 53 52 47 47 50 49 45 44 44 45 45 42 37 37 41 44 42 40 35 33 34 30 24 26
58 58 58 58 58 58 58 59 59 59 59 58 51 51 54 58 58 57 49 44 47 54 55 53 48 49 45 47 46 44 43 45 45 45 42 40 36 39 42 42 41 36 40 34 31 26 28
58 58 58 58 57 57 57 57 58 58 58 57 51 51 57 56 58 51 42 43 51 56 56 53 50 48 48 47 48 43 44 45 46 44 42 40 39 34 38 37 37 35 33 31 31 28 24
58 58 58 58 57 56 56 57 57 57 56 54 48 46 56 57 47 38 41 48 55 54 54 54 52 52 50 48 46 44 45 44 46 47 43 40 38 35 34 36 39 36 34 34 28 27 20
58 58 58 57 56 55 55 56 56 56 55 48 46 45 54 57 40 39 43 50 52 52 52 52 51 53 51 49 45 46 45 44 45 45 44 43 37 33 31 32 36 34 35 33 29 26 22
58 58 57 57 56 55 55 55 56 56 55 49 45 43 47 46 43 43 43 46 48 52 53 53 51 51 48 46 46 45 44 44 44 45 53 48 36 38 35 37 36 33 35 33 33 22 24
58 58 57 57 56 55 55 55 55 55 55 51 48 42 42 39 42 42 43 45 46 47 50 51 47 51 51 44 44 45 42 41 43 49 42 43 38 34 37 39 37 38 37 33 30 33 35
58 57 57 56 56 55 55 54 55 54 54 52 47 42 40 39 42 42 42 43 46 47 49 47 47 51 49 48 50 49 45 42 44 38 40 38 38 33 36 36 36 36 37 35 35 33 33
57 57 57 56 56 55 54 54 54 54 53 50 48 44 45 41 39 39 40 45 48 47 49 50 50 48 45 50 48 44 46 45 45 42 39 38 36 33 33 33 35 35 36 35 33 33 39
58 57 57 56 56 55 55 54 54 54 52 50 50 45 42 38 38 41 44 46 47 47 46 47 47 47 45 46 48 48 45 43 43 39 41 35 34 29 27 32 29 42 37 39 39 40 38
58 57 57 56 56 56 55 54 54 54 53 49 50 48 45 35 41 42 44 44 44 43 43 44 44 44 44 45 39 38 38 40 37 37 37 38 33 24 29 29 39 41 37 38 38 43 44
58 58 57 56 56 55 55 54 54 53 53 48 49 51 47 44 41 47 45 45 42 39 40 42 43 44 45 38 33 32 33 38 34 33 36 36 34 29 22 27 32 43 39 41 39 38 43
57 57 57 56 56 55 55 54 54 53 53 45 47 51 48 43 45 45 42 43 45 41 40 37 41 41 42 29 28 29 35 39 37 34 31 28 25 26 24 25 35 43 42 41 35 43 40
57 57 57 56 56 55 55 54 53 53 52 46 45 50 47 44 45 48 48 44 43 42 40 41 41 40 31 30 30 34 33 36 36 37 34 33 28 24 24 25 34 42 41 42 47 41 41
57 57 57 56 56 55 55 54 53 53 52 48 45 49 49 45 43 47 46 47 47 48 44 39 41 40 40 34 31 33 33 31 35 35 34 35 39 33 35 39 45 42 45 45 44 45 42

GFSGBSN_sfc_temp_282.txt.gz
Temp
68 68 67 67 66 66 66 65 65 65 65 66 66 66 65 65 65 65 65 66 66 67 67 66 67 67 80 80 78 87 78 80 85 84 82 80 78 73 67 66 65 63 60 61 60 60 60
68 67 67 66 66 66 66 65 65 65 65 65 65 65 65 65 64 64 65 65 66 66 65 66 67 66 82 74 84 86 86 84 83 83 79 80 78 77 67 62 63 62 62 60 60 60 59
67 67 67 67 66 66 66 65 65 64 64 64 65 65 65 64 64 64 64 64 65 65 65 66 68 79 80 76 86 87 84 79 80 81 76 77 79 75 70 61 64 63 58 60 60 60 57
67 67 67 67 66 66 65 65 64 64 64 64 65 64 64 63 63 63 64 64 63 64 65 67 67 82 76 83 88 84 86 83 84 82 77 78 78 69 67 67 63 61 61 59 58 59 56
67 67 67 66 66 66 65 65 64 64 64 64 64 63 63 63 63 63 63 63 64 67 68 69 80 81 73 80 80 82 84 80 80 80 79 78 75 67 64 64 62 60 62 57 55 59 57
66 66 66 65 65 65 65 65 64 64 63 63 63 62 62 62 62 63 62 63 67 71 76 81 81 75 76 74 78 79 83 81 78 76 75 74 72 69 67 66 60 60 59 58 57 57 55
65 64 64 64 64 64 65 65 64 64 63 63 62 62 61 62 62 62 72 83 80 77 78 75 75 73 74 77 79 77 78 79 78 75 69 68 68 65 63 62 61 60 58 57 57 55 54
64 64 64 64 64 64 64 64 64 63 63 62 62 62 61 61 61 61 73 78 71 72 71 73 74 74 76 78 72 74 79 73 71 67 67 67 64 62 62 60 59 58 58 58 55 54 54
64 64 63 63 63 63 63 63 64 63 62 62 62 61 61 61 60 72 75 71 75 76 71 70 73 73 73 76 70 70 74 72 68 64 64 63 61 61 60 58 57 58 56 55 54 53 54
63 63 63 62 62 62 62 62 63 63 63 62 61 61 61 60 69 73 74 74 76 76 67 65 67 71 73 73 66 72 73 71 66 63 62 62 61 59 58 57 58 55 55 54 52 53 55
62 62 62 62 61 61 61 61 61 62 62 63 61 60 60 60 71 74 73 75 76 76 52 64 67 77 72 69 67 67 71 71 64 61 62 58 57 57 57 56 57 54 54 53 52 53 52
61 61 61 61 61 60 60 60 61 61 61 62 61 60 59 67 72 73 75 74 76 63 51 60 66 65 66 66 66 67 68 70 66 61 61 57 60 59 58 56 56 55 53 52 51 53 52
60 60 60 60 61 59 59 60 60 60 61 61 61 60 61 68 73 73 74 77 63 55 64 60 61 64 64 62 62 64 62 62 61 56 57 55 55 57 58 55 56 55 54 54 52 53 54
60 59 59 59 60 60 59 59 59 60 59 59 59 58 64 69 73 71 76 70 53 58 60 63 62 61 61 63 61 61 60 60 59 60 59 57 53 54 56 55 54 54 54 53 45 51 53
60 59 58 58 59 59 59 59 59 59 58 57 57 72 71 73 70 71 72 58 60 61 64 61 60 59 59 60 61 60 60 60 61 61 58 56 52 53 53 55 55 52 53 52 49 47 49
59 59 58 58 57 57 57 58 58 58 58 56 66 68 70 70 71 73 67 56 61 63 64 63 59 61 58 59 58 59 59 60 57 57 60 58 53 51 51 54 53 52 54 51 53 42 45
59 59 58 58 57 56 56 57 58 57 57 57 66 65 69 70 72 69 59 61 61 65 66 63 61 59 60 59 60 59 60 57 58 55 59 59 56 49 51 50 53 50 53 50 50 50 48
60 59 59 58 58 56 56 56 57 57 55 59 64 59 68 70 63 61 59 60 57 64 64 64 64 63 61 60 59 58 59 59 58 60 56 57 57 53 51 50 52 52 53 55 50 46 47
60 59 59 58 58 56 55 55 56 56 55 63 62 63 68 69 56 56 57 57 60 61 63 63 62 63 63 61 57 58 57 54 55 57 57 57 54 52 49 48 50 49 51 51 48 49 46
60 59 59 59 58 56 55 55 55 55 55 60 60 56 62 64 59 59 57 57 57 61 63 64 63 64 61 59 58 57 57 53 54 56 53 57 55 56 52 54 54 48 46 48 53 47 50
60 60 59 59 58 56 55 55 55 55 55 58 58 55 56 53 55 58 58 57 56 56 61 63 60 62 62 57 57 57 56 53 53 54 54 57 53 53 55 54 50 53 51 46 42 55 50
59 59 59 59 58 57 56 55 55 54 54 55 55 53 53 52 51 54 52 55 56 58 59 58 58 62 63 59 62 60 59 57 59 52 55 53 53 49 51 50 49 46 51 52 50 50 52
59 59 59 58 58 57 56 55 54 54 53 52 57 55 58 47 50 51 54 57 56 61 61 62 63 61 58 61 64 62 63 60 62 58 54 53 52 48 50 49 47 46 51 53 51 51 54
59 59 58 58 58 57 56 55 54 54 53 52 59 60 55 48 50 52 53 54 55 57 59 59 60 60 57 60 61 62 58 56 56 52 56 52 52 48 48 49 42 58 53 56 53 56 55
59 58 58 58 58 57 56 56 55 54 53 53 54 55 54 47 52 52 51 53 54 56 56 58 57 57 61 59 54 51 52 51 50 47 50 52 53 41 44 46 55 59 48 49 52 59 60
59 59 58 58 57 57 56 56 55 55 54 52 53 55 54 51 49 56 53 55 54 55 53 52 54 57 57 55 49 44 45 52 46 44 47 47 51 48 41 39 42 58 54 53 55 55 59
58 58 58 58 57 57 56 56 55 55 54 52 52 55 51 46 56 55 52 53 58 55 55 53 52 51 53 47 46 46 48 53 47 46 42 43 42 39 45 42 51 59 53 53 50 56 60
57 58 58 57 57 56 56 56 55 55 54 51 51 54 50 47 54 54 55 54 53 55 52 51 51 50 46 43 47 50 48 53 51 53 47 45 39 39 43 38 41 52 49 53 61 60 59
57 57 57 57 57 56 56 56 55 55 54 51 47 53 52 47 50 53 55 56 56 59 58 51 53 53 57 51 49 53 46 48 51 48 47 45 54 50 50 53 57 56 55 56 56 57 59

GFSGBSN_sfc_temp_288.txt.gz
Temp
69 68 68 67 67 67 66 66 65 65 65 66 66 66 66 65 65 65 65 65 66 67 67 66 67 67 77 79 78 90 82 81 86 88 85 82 78 75 68 69 69 64 63 65 64 64 64
68 68 68 67 67 67 66 66 65 65 65 65 65 65 65 65 64 64 65 65 66 66 65 66 67 66 78 73 89 91 88 88 87 86 84 83 79 78 70 67 64 66 65 63 64 63 62
67 68 68 67 67 67 66 66 65 65 65 65 65 65 65 64 64 64 64 64 65 64 65 66 67 79 79 74 88 89 89 85 86 86 80 83 82 76 73 63 68 66 58 60 60 62 60
67 67 68 68 67 67 66 66 65 64 64 65 65 65 64 63 63 63 64 63 63 64 65 67 67 81 74 86 86 88 89 85 87 86 82 82 81 73 71 68 66 61 61 52 59 61 58
67 67 68 67 67 66 66 65 65 64 64 64 64 64 63 63 63 63 63 63 64 66 69 70 78 80 72 80 82 85 86 83 83 83 80 84 79 69 67 61 57 59 52 57 55 62 59
66 66 67 66 65 65 65 65 65 64 64 64 63 63 62 62 62 63 62 63 67 68 73 85 86 75 77 77 80 83 84 84 80 78 76 73 70 63 62 60 49 54 55 57 55 57 57
65 64 64 64 64 64 65 65 64 64 63 63 62 62 62 62 62 62 69 80 76 74 81 76 77 76 78 81 82 80 82 80 79 74 64 69 61 57 61 62 61 60 58 57 57 60 53
64 64 64 64 64 63 63 63 63 64 63 63 62 62 61 61 61 61 67 79 74 76 71 80 79 79 82 82 74 77 80 71 70 64 69 64 57 63 66 64 61 60 57 54 55 59 52
64 64 63 63 63 63 62 62 62 64 64 64 63 62 61 61 61 69 79 76 82 82 69 73 79 78 77 79 74 73 76 72 68 64 65 59 61 66 64 61 60 59 54 53 53 56 56
63 63 63 63 62 62 61 61 61 62 62 62 62 61 61 60 68 80 77 82 83 81 62 65 70 74 77 77 69 77 77 71 68 62 63 60 63 63 59 60 59 51 58 57 56 50 44
63 62 62 62 62 61 60 60 60 60 60 60 61 61 60 59 70 77 78 82 82 76 49 69 70 81 78 71 69 69 75 71 63 65 60 55 58 57 57 57 59 53 56 54 53 48 47
62 62 61 61 61 60 60 60 60 59 59 59 59 59 59 69 75 79 81 80 76 58 50 62 70 67 67 70 71 70 70 72 68 63 63 58 62 59 57 60 58 58 54 53 51 46 39
61 61 61 60 60 60 60 60 60 59 59 59 58 58 58 68 73 80 79 75 59 53 68 61 64 67 67 65 67 67 64 60 57 51 52 57 57 58 59 54 56 54 46 39 37 36 40
61 61 60 60 60 60 60 59 59 59 59 59 57 57 66 73 78 77 76 66 51 65 65 70 68 67 63 67 66 65 62 58 64 59 55 52 46 54 58 53 48 51 47 40 33 35 40
61 61 60 60 59 59 59 59 59 59 58 57 56 69 72 79 78 74 67 55 60 66 69 66 65 61 61 65 62 63 60 60 63 62 53 53 48 54 57 56 53 50 44 48 44 45 38
61 60 60 59 59 58 58 58 58 58 58 56 62 72 73 78 78 71 61 55 66 69 69 68 60 64 60 61 58 60 61 62 61 60 62 55 47 53 53 54 53 48 53 43 42 33 32
61 60 60 59 59 58 57 58 58 58 57 56 61 64 71 78 76 67 55 61 68 72 70 66 63 63 63 62 62 60 61 58 61 59 58 57 53 45 50 47 48 46 46 47 46 43 33
61 61 60 59 59 58 57 57 57 57 56 55 65 56 72 75 59 63 58 66 59 68 69 66 65 65 63 64 61 60 60 60 62 61 55 56 53 47 47 50 52 48 49 50 36 38 38
61 61 60 60 59 58 57 57 57 56 55 60 61 63 71 70 54 56 64 66 65 65 66 65 64 66 66 62 55 61 60 57 57 58 55 56 50 43 39 43 47 44 49 50 48 42 36
61 61 60 60 59 57 57 56 56 56 56 55 61 55 61 63 62 60 60 62 60 65 64 68 66 67 63 60 63 57 58 56 55 58 56 56 52 50 42 45 50 42 45 47 47 33 35
61 61 60 60 59 57 57 56 56 56 56 55 60 57 59 52 56 59 61 61 60 59 63 66 61 62 61 54 58 58 60 54 55 56 53 53 48 53 55 55 53 51 50 46 40 49 41
61 60 60 60 59 58 57 56 56 56 55 56 58 56 58 54 58 58 55 56 57 61 62 59 58 62 63 57 60 58 61 58 56 52 53 54 47 49 48 55 54 49 51 50 48 48 49
61 60 60 60 59 58 57 56 55 55 54 58 63 63 59 54 56 54 55 57 59 62 64 66 64 60 59 62 63 61 62 61 60 54 51 50 46 45 40 50 47 42 49 50 49 51 50
61 60 59 60 59 58 57 56 56 55 53 58 64 63 56 49 51 55 59 60 59 61 59 64 64 59 58 64 63 61 60 59 59 58 58 51 48 43 35 44 33 52 54 54 53 55 54
60 60 59 59 59 58 57 57 56 55 54 53 60 59 57 49 56 56 57 58 59 59 58 60 60 59 62 58 51 49 48 50 54 56 53 53 49 36 34 37 48 54 54 49 47 50 56
60 60 59 59 59 58 57 57 56 56 54 53 56 59 54 51 50 60 57 58 52 54 54 57 57 60 57 52 45 39 38 47 44 43 50 51 49 38 34 31 33 48 50 52 51 41 55
59 59 59 59 58 58 57 57 56 55 55 53 54 58 53 49 56 57 53 53 59 56 52 55 51 50 53 42 39 38 42 53 43 42 36 37 35 33 35 33 44 55 52 52 38 43 54
59 59 59 58 58 57 57 57 56 56 55 52 53 57 53 49 54 59 60 56 55 57 49 52 49 49 42 39 40 43 43 49 49 52 42 38 34 31 33 32 34 52 48 46 51 50 55
59 60 58 58 57 56 56 56 56 56 55 54 49 56 55 48 50 56 58 60 58 55 55 54 53 50 50 43 45 47 43 47 47 42 50 40 46 39 42 43 54 53 52 54 54 53 51

GFSGBSN_sfc_temp_291.txt.gz
Temp
68 68 67 67 67 67 66 65 65 65 65 66 66 65 65 65 65 65 65 65 66 66 66 66 66 67 70 68 68 81 81 80 79 80 77 74 68 65 59 61 61 55 56 60 59 60 59
67 67 67 67 67 67 66 66 65 65 65 65 65 65 65 64 64 64 64 65 65 65 65 65 66 66 68 62 80 82 82 80 81 78 75 75 69 68 62 59 56 57 58 57 58 57 58
67 67 67 67 67 67 66 66 65 64 64 65 65 65 65 64 63 63 64 64 64 64 64 65 67 74 68 67 79 77 83 77 79 78 73 73 72 69 63 56 63 59 52 52 55 56 54
66 67 67 67 67 66 66 65 65 64 64 65 65 64 64 63 63 63 64 63 63 64 65 66 66 68 62 77 75 81 80 77 80 79 76 74 74 68 63 60 59 53 51 44 52 56 53
66 67 67 67 67 66 65 65 65 64 64 64 64 63 63 63 62 63 63 63 64 66 67 69 67 63 60 77 74 76 78 76 76 76 73 82 72 61 59 52 47 48 43 47 48 57 53
66 67 67 66 65 65 65 65 64 64 64 63 63 62 62 62 62 62 62 64 67 67 72 79 79 64 68 68 72 75 74 78 73 72 70 66 61 54 52 48 42 44 44 49 46 52 52
65 64 64 64 64 64 64 64 63 63 63 63 62 62 62 62 62 62 62 68 66 64 66 64 66 67 71 71 74 70 74 72 71 65 56 61 53 48 49 53 54 51 48 46 47 54 49
64 64 64 63 63 63 63 63 62 63 63 63 63 62 62 61 61 60 57 66 64 66 60 72 73 72 74 73 66 68 72 62 61 56 58 55 50 56 60 58 55 52 48 47 49 54 49
64 63 63 63 63 62 62 61 62 62 62 62 63 62 61 61 61 63 67 67 73 70 57 67 71 71 70 71 65 63 68 64 58 56 56 51 55 62 60 54 54 50 47 46 46 50 49
63 63 63 62 62 62 61 61 60 60 61 60 60 60 60 60 64 67 67 73 72 70 50 58 64 67 71 69 61 70 69 63 59 53 55 52 58 58 54 54 54 45 51 52 51 45 39
63 63 62 62 61 61 60 60 60 60 59 59 59 58 59 59 58 65 70 71 70 65 39 62 63 73 69 64 63 63 68 63 55 56 54 49 52 51 52 52 55 50 53 49 48 42 39
62 62 62 61 61 60 60 60 60 59 59 59 59 57 57 62 60 66 70 70 66 51 42 57 63 61 60 62 63 64 62 64 61 56 55 50 56 53 51 55 54 54 49 48 45 40 34
62 62 61 61 60 60 60 59 60 60 59 59 58 57 57 64 62 68 67 63 49 42 60 55 57 61 58 58 59 60 56 51 50 44 42 49 49 51 55 48 51 49 41 35 36 34 36
62 61 61 60 60 60 60 59 59 59 59 58 57 57 59 66 65 66 62 54 40 56 55 62 61 60 55 59 58 59 53 49 54 51 46 43 42 47 52 47 44 44 42 35 33 33 37
61 61 61 60 60 60 59 59 59 59 58 57 56 55 58 66 66 64 57 43 48 53 61 59 59 52 52 58 56 53 51 51 53 56 47 44 43 49 51 50 48 44 39 44 39 37 35
61 61 60 60 60 59 59 58 58 59 58 56 50 55 61 68 69 61 53 48 55 62 62 61 52 55 50 52 51 51 51 54 55 55 53 48 42 48 49 49 47 43 47 39 37 31 31
61 61 61 60 59 58 58 58 58 58 57 55 50 53 62 68 65 55 45 49 60 65 64 58 54 54 55 54 53 51 53 53 56 53 52 48 47 40 45 43 43 42 41 41 40 36 30
61 61 61 60 59 58 58 58 58 57 56 53 52 49 63 65 51 49 48 58 60 62 61 59 58 58 55 55 54 52 52 53 56 56 51 51 46 40 42 45 47 45 44 43 30 35 32
62 61 61 60 59 58 57 58 57 56 55 50 50 52 62 62 45 46 54 59 61 59 58 58 58 60 58 54 49 53 51 53 54 54 51 50 44 37 37 40 43 41 44 45 41 34 33
62 61 61 60 59 58 57 57 57 56 55 50 49 46 51 53 51 50 50 54 55 59 58 60 59 59 55 53 55 51 51 52 52 53 57 54 45 43 38 43 45 39 43 43 42 26 30
61 61 61 60 59 58 57 57 57 56 56 50 48 46 50 42 47 48 49 52 53 54 57 58 54 56 55 48 50 51 51 48 51 55 49 49 42 43 47 50 48 47 46 43 38 42 38
61 61 61 60 59 58 57 57 57 56 55 49 48 46 48 45 51 48 48 49 53 54 55 53 52 55 54 50 53 50 52 48 50 45 48 47 43 43 43 51 50 46 47 45 44 46 42
61 61 60 60 59 58 57 56 56 55 53 48 51 52 50 45 46 45 46 50 53 56 57 59 58 54 53 55 54 55 55 56 55 48 45 44 42 39 36 45 44 41 44 46 46 44 46
61 61 60 60 59 59 58 57 56 55 53 48 51 51 46 41 45 48 53 54 54 54 52 57 57 55 56 57 56 54 51 53 54 50 51 45 42 35 31 38 31 49 50 50 49 51 49
61 60 60 60 59 59 58 57 57 56 54 46 49 49 47 41 48 49 52 51 53 54 53 54 54 55 56 55 46 45 44 46 49 51 49 50 41 31 31 31 42 51 53 49 47 49 52
60 60 60 60 59 58 58 57 57 56 55 48 48 52 48 43 44 55 52 52 48 47 47 51 51 54 55 47 42 36 34 41 41 41 45 46 43 38 28 27 30 45 47 50 48 40 52
57 59 60 59 59 58 58 57 57 56 55 49 47 53 49 43 48 53 48 49 54 50 45 46 47 47 49 36 32 34 37 47 39 37 36 35 30 31 31 28 37 49 50 49 37 43 49
58 58 58 59 58 57 57 57 57 56 55 52 48 54 51 44 47 53 55 52 51 52 44 47 46 44 37 36 35 38 37 43 42 43 38 36 32 28 28 27 33 51 47 46 49 47 50
58 58 58 58 58 57 57 57 56 56 55 54 46 54 53 48 45 49 52 54 55 53 51 45 46 44 45 38 37 39 38 40 41 37 41 38 42 36 38 41 52 51 52 51 51 51 50